Stjerne skud på nattehimlen netop nu: Tauriderne og Leoniderne 6.november-30.november. Se langvarige stjerneskud med lange haler.
  • Kilde planetariet
  • Ny Tablet venlig Vejr3


  • Vejr3>N more information Vejr3>N


    3 timers nedbørs radar more information rain snow radar


    besøg nogle andre vejrsider:

    Template dokumentation
    og downloads

    And another site


    Select another period ( hide this area )

    enheder periode Custom range Directly to
    metrisk engelsk både
    dagens ugenligt månedlig årligt
    use both date-selectors for a custom range
    forgående dag
    With this date

    WeatherUnderground graphs for this period ( click here )


    dagens sammenfatning af fredag 06 december 2019
    tid Temp. ( °C ) Dew pt. ( °C ) vind ( km/h ) fra vindstød ( km/h ) lufttryk ( hPa ) Humid.( % ) Rainrate ( cm ) solenergi ( W/m2 )
    høj8,2 8,2 38,9 ssø ( 1788/2981 ) 53,1 1001,4 100 0,50 40
    gennemsnit6,7 6,2 21,3 ssø #86/140 32,3 997,5 97 0,60 12 #26/140
    lav5,0 3,9 8,0   11,6 995,8 88 -  
    dagens Tabular details for fredag 06 december 2019
    tid Temp. ( °C ) Dew pt. ( °C ) vind ( km/h ) fra vindstød ( km/h ) lufttryk ( hPa ) Humid.( % ) Rainrate ( cm ) solenergi ( W/m2 )
    00:00 6,1 4,2 29,0 syd 38,6 1001,4 88 - -
    00:05 6,0 4,2 22,5 syd 38,6 1001,4 88 - -
    00:10 6,0 4,3 14,5 syd 40,2 1001,2 89 - -
    00:15 5,9 4,3 20,9 ssø 37,0 1001,0 89 - -
    00:20 5,8 4,2 27,4 ssø 35,4 1000,8 89 - -
    00:25 5,8 4,1 22,5 ssø 38,6 1000,7 89 - -
    00:30 5,6 3,9 12,9 ssø 19,3 1000,6 89 - -
    00:35 5,5 4,0 24,1 ssø 40,2 1000,5 90 - -
    00:40 5,4 4,1 24,1 ssø 41,8 1000,4 91 - -
    00:45 5,4 4,1 35,2 ssø 20,1 1000,2 91 0,30 -
    00:50 5,3 4,0 27,4 syd 43,4 1000,1 91 - -
    00:55 5,3 4,1 25,7 syd 45,1 999,9 92 - -
    01:00 5,3 4,1 27,4 syd 40,2 999,9 92 - -
    01:05 5,3 4,1 19,3 ssø 22,5 999,6 92 - -
    01:10 5,3 4,2 20,9 ssø 38,6 999,6 93 - -
    01:15 5,2 4,2 25,7 ssø 46,7 999,5 93 - -
    01:20 5,2 4,2 25,7 syd 29,0 999,3 93 0,30 -
    01:25 5,2 4,3 20,9 syd 27,4 999,2 94 - -
    01:30 5,2 4,3 20,9 syd 38,6 999,1 94 - -
    01:35 5,1 4,2 29,0 syd 35,4 999,0 94 - -
    01:40 5,1 4,2 20,9 syd 32,2 998,9 94 0,50 -
    01:45 5,1 4,2 22,5 syd 32,2 998,8 94 - -
    01:50 5,1 4,3 25,7 syd 37,0 998,7 95 - -
    01:55 5,0 4,3 25,7 ssø 40,2 998,7 95 - -
    02:00 5,0 4,3 24,1 ssø 51,5 998,7 95 - -
    02:05 5,1 4,3 29,0 ssø 40,2 998,6 95 0,30 -
    02:10 5,1 4,3 27,4 ssø 51,5 998,6 95 - -
    02:15 5,1 4,3 24,1 syd 32,2 998,6 95 - -
    02:20 5,1 4,3 27,4 syd 29,0 998,5 95 - -
    02:25 5,1 4,4 27,4 ssø 53,1 998,4 96 - -
    02:30 5,1 4,5 22,5 syd 46,7 998,3 96 - -
    02:35 5,1 4,5 20,9 ssø 41,8 998,2 96 - -
    02:40 5,1 4,5 27,4 ssø 41,8 998,1 96 0,30 -
    02:45 5,1 4,5 24,1 syd 51,5 998,1 96 0,30 -
    02:50 5,1 4,6 33,8 syd 49,9 997,9 96 - -
    02:55 5,2 4,6 25,7 ssø 38,6 997,8 96 - -
    03:00 5,2 4,6 22,5 syd 38,6 997,7 96 - -
    03:05 5,2 4,6 22,5 ssø 45,1 997,7 96 - -
    03:10 5,3 4,7 22,5 ssø 48,3 997,6 96 0,30 -
    03:15 5,3 4,7 20,9 ssø 29,0 997,7 96 - -
    03:20 5,4 4,8 24,1 ssø 40,2 997,5 96 - -
    03:25 5,4 4,8 25,7 ssø 41,8 997,4 96 - -
    03:30 5,4 4,8 29,0 syd 41,8 997,3 96 - -
    03:35 5,5 4,9 24,1 syd 46,7 997,2 96 - -
    03:40 5,6 4,9 27,4 ssø 48,3 997,1 96 - -
    03:45 5,7 5,1 22,5 ssø 43,4 997,2 96 - -
    03:50 5,7 5,1 25,7 syd 40,2 997,1 96 - -
    03:55 5,8 5,2 20,9 syd 37,0 996,8 96 - -
    04:00 5,8 5,3 24,1 syd 40,2 996,8 96 - -
    04:05 5,9 5,3 24,1 ssø 37,0 996,8 96 - -
    04:10 6,0 5,4 27,4 ssø 35,4 996,7 96 - -
    04:15 6,1 5,4 22,5 ssø 33,8 996,6 96 - -
    04:20 6,1 5,5 25,7 ssø 41,8 996,7 96 - -
    04:25 6,2 5,6 33,3 ssø 23,3 996,6 96 - -
    04:30 6,2 5,6 27,8 ssø 20,4 996,5 96 - -
    04:35 6,3 5,7 24,1 ssø 38,6 996,5 96 - -
    04:40 6,3 5,7 27,4 ssø 45,1 996,5 96 - -
    04:45 6,4 5,8 22,5 ssø 45,1 996,4 96 - -
    04:50 6,4 5,8 25,7 ssø 32,2 996,5 96 - -
    04:55 6,4 5,8 19,3 ssø 40,2 996,5 96 - -
    05:00 6,5 5,9 20,9 ssø 32,2 996,4 96 - -
    05:05 6,6 5,9 35,2 ssø 19,5 996,4 96 - -
    05:10 6,6 5,9 38,9 ssø 22,5 996,3 96 - -
    05:15 6,6 6,1 19,3 ssø 37,0 996,4 96 - -
    05:20 6,7 6,1 24,1 ssø 38,6 996,3 96 - -
    05:25 6,7 6,1 24,1 sv 41,8 996,2 96 - -
    05:30 6,8 6,2 25,7 ssø 40,2 996,2 96 - -
    05:35 6,8 6,2 19,3 syd 35,4 996,3 96 - -
    05:40 6,8 6,2 22,5 syd 38,6 996,1 96 - -
    05:45 6,8 6,2 20,9 ssø 29,0 996,1 96 - -
    05:50 6,9 6,3 27,4 ssø 43,4 996,0 96 - -
    05:55 6,9 6,3 20,9 syd 40,2 996,0 96 - -
    06:00 7,0 6,4 24,1 ssø 35,4 995,9 96 - -
    06:05 7,0 6,4 24,1 ssø 32,2 995,9 96 - -
    06:10 7,1 6,4 24,1 ssø 38,6 995,9 96 - -
    06:15 7,1 6,7 38,9 sv 21,1 995,8 97 - -
    06:20 7,2 6,7 20,9 syd 40,2 995,9 97 - -
    06:25 7,2 6,8 22,5 syd 38,6 995,8 97 - -
    06:30 7,3 6,8 20,9 syd 35,4 995,9 97 - -
    06:35 7,3 6,9 33,8 vsv 19,0 995,8 97 - -
    06:40 7,3 6,9 31,5 sv 23,0 995,8 97 - -
    06:45 7,4 6,9 24,1 ssø 41,8 995,8 97 - -
    06:50 7,4 6,9 19,3 ssø 25,7 995,9 97 - -
    06:55 7,4 7,0 19,3 ssø 25,7 996,0 97 - -
    07:00 7,4 7,0 20,9 ssø 33,8 996,1 97 - -
    07:05 7,4 7,0 19,3 ssø 29,0 996,1 97 - -
    07:10 7,4 7,0 19,3 ssø 33,8 996,1 97 - -
    07:15 7,5 7,1 19,3 ssø 27,4 996,1 97 - -
    07:20 7,5 7,1 14,5 ssø 32,2 996,2 97 - -
    07:25 7,5 7,1 19,3 ssø 33,8 996,2 97 - -
    07:30 7,5 7,1 14,5 ssø 27,4 996,2 97 - -
    07:35 7,5 7,1 19,3 ssø 29,0 996,4 97 - -
    07:40 7,5 7,1 20,9 ssø 32,2 996,3 97 - -
    07:45 7,5 7,1 25,9 syd 13,5 996,4 97 - -
    07:50 7,6 7,1 20,9 syd 29,0 996,3 97 - -
    07:55 7,6 7,1 20,9 ssø 22,5 996,4 97 - -
    08:00 7,6 7,1 11,3 ssø 27,4 996,5 97 - -
    08:05 7,6 7,1 16,1 ssø 24,1 996,6 97 - -
    08:10 7,6 7,1 14,5 ssø 35,4 996,6 97 - -
    08:15 7,6 7,6 19,3 ssø 32,2 996,6 100 - -
    08:20 7,6 7,2 12,9 ssø 27,4 996,8 97 0,30 -
    08:25 7,7 7,2 12,9 ssø 20,9 997,0 97 - -
    08:30 7,7 7,7 12,9 ssø 22,5 997,0 100 - -
    08:35 7,7 7,7 11,3 syd 33,8 997,1 100 - -
    08:40 7,7 7,7 19,3 syd 25,7 997,2 100 - -
    08:45 7,8 7,8 16,1 ssø 27,4 997,3 100 - -
    08:50 7,8 7,8 14,5 ssø 22,5 997,3 100 - -
    08:55 7,8 7,8 19,3 syd 25,7 997,3 100 - -
    09:00 7,9 7,9 16,1 syd 27,4 997,3 100 - -
    09:05 8,0 8,0 18,5 sv 11,9 997,4 100 0,30 -
    09:10 8,0 8,0 19,3 syd 22,5 997,3 100 - -
    09:15 8,1 8,1 20,9 ssø 25,7 997,3 100 - -
    09:20 8,1 8,1 19,3 sv 32,2 997,3 100 - -
    09:25 8,1 8,1 16,1 sv 19,3 997,4 100 - -
    09:30 8,1 8,1 16,1 sv 24,1 997,4 100 - 0.5
    09:35 8,1 8,1 8,0 syd 22,5 997,4 100 - 1.3
    09:40 8,1 8,1 12,9 ssø 25,7 997,5 100 - 2.3
    09:45 8,1 8,1 12,9 sv 25,7 997,6 100 - 3.2
    09:50 8,2 8,2 11,3 sv 19,3 997,5 100 - 4.2
    09:55 8,2 8,2 12,9 sv 16,1 997,6 100 - 5.2
    10:00 8,2 8,2 11,3 sv 24,1 997,7 100 - 6.2
    10:05 8,2 8,2 14,5 ssø 29,0 997,7 100 - 7
    10:10 8,2 8,2 9,7 ssø 20,9 997,8 100 - 8
    10:15 8,2 8,2 29,6 sv 15,9 997,9 100 - 9
    10:20 8,1 8,1 9,7 ssø 25,7 997,8 100 - 9.7
    10:25 8,1 8,1 16,1 ssø 32,2 997,9 100 - 10.6
    10:30 8,1 8,1 16,1 ssø 22,5 997,9 100 - 11.6
    10:35 8,1 8,1 14,5 ssø 27,4 997,9 100 - 12.4
    10:40 8,1 8,1 14,5 ssø 25,7 998,0 100 - 13.2
    10:45 8,1 8,1 14,5 ssø 22,5 997,8 100 - 14
    10:50 8,1 8,1 19,3 ssø 25,7 997,8 100 - 14.8
    10:55 8,1 8,1 14,5 ssø 25,7 997,8 100 - 15.7
    11:00 8,1 8,1 14,5 ssø 19,3 997,8 100 - 16.3
    11:05 8,1 8,1 12,9 ssø 19,3 997,9 100 - 17
    11:10 8,2 8,2 14,5 ssø 22,5 997,8 100 - 17.7
    11:15 8,2 8,2 18,5 ssø 11,6 997,8 100 0,30 40
    11:20 8,2 8,2 14,5 ssø 27,4 997,8 100 - 19.1
    11:25 8,2 8,2 19,3 ssø 22,5 997,8 100 - 19.6
    11:30 8,2 8,2 12,9 syd 22,5 997,7 100 0,30 20.2
    11:35 8,2 8,2 11,3 syd 24,1 997,7 100 - 20.9
    dagens sammenfatning af fredag 06 december 2019
    tid Temp. ( °C ) Dew pt. ( °C ) vind ( km/h ) fra vindstød ( km/h ) lufttryk ( hPa ) Humid.( % ) Rainrate ( cm ) solenergi ( W/m2 )
    høj8,2 8,2 38,9 ssø ( 1788/2981 ) 53,1 1001,4 100 0,50 40
    gennemsnit6,7 6,2 21,3 ssø #86/140 32,3 997,5 97 0,60 12 #26/140
    lav5,0 3,9 8,0   11,6 995,8 88 -  
    dagens Tabular details for fredag 06 december 2019
    tid Temp. ( °C ) Dew pt. ( °C ) vind ( km/h ) fra vindstød ( km/h ) lufttryk ( hPa ) Humid.( % ) Rainrate ( cm ) solenergi ( W/m2 )
    00:00 6,1 4,2 29,0 syd 38,6 1001,4 88 - -
    00:05 6,0 4,2 22,5 syd 38,6 1001,4 88 - -
    00:10 6,0 4,3 14,5 syd 40,2 1001,2 89 - -
    00:15 5,9 4,3 20,9 ssø 37,0 1001,0 89 - -
    00:20 5,8 4,2 27,4 ssø 35,4 1000,8 89 - -
    00:25 5,8 4,1 22,5 ssø 38,6 1000,7 89 - -
    00:30 5,6 3,9 12,9 ssø 19,3 1000,6 89 - -
    00:35 5,5 4,0 24,1 ssø 40,2 1000,5 90 - -
    00:40 5,4 4,1 24,1 ssø 41,8 1000,4 91 - -
    00:45 5,4 4,1 35,2 ssø 20,1 1000,2 91 0,30 -
    00:50 5,3 4,0 27,4 syd 43,4 1000,1 91 - -
    00:55 5,3 4,1 25,7 syd 45,1 999,9 92 - -
    01:00 5,3 4,1 27,4 syd 40,2 999,9 92 - -
    01:05 5,3 4,1 19,3 ssø 22,5 999,6 92 - -
    01:10 5,3 4,2 20,9 ssø 38,6 999,6 93 - -
    01:15 5,2 4,2 25,7 ssø 46,7 999,5 93 - -
    01:20 5,2 4,2 25,7 syd 29,0 999,3 93 0,30 -
    01:25 5,2 4,3 20,9 syd 27,4 999,2 94 - -
    01:30 5,2 4,3 20,9 syd 38,6 999,1 94 - -
    01:35 5,1 4,2 29,0 syd 35,4 999,0 94 - -
    01:40 5,1 4,2 20,9 syd 32,2 998,9 94 0,50 -
    01:45 5,1 4,2 22,5 syd 32,2 998,8 94 - -
    01:50 5,1 4,3 25,7 syd 37,0 998,7 95 - -
    01:55 5,0 4,3 25,7 ssø 40,2 998,7 95 - -
    02:00 5,0 4,3 24,1 ssø 51,5 998,7 95 - -
    02:05 5,1 4,3 29,0 ssø 40,2 998,6 95 0,30 -
    02:10 5,1 4,3 27,4 ssø 51,5 998,6 95 - -
    02:15 5,1 4,3 24,1 syd 32,2 998,6 95 - -
    02:20 5,1 4,3 27,4 syd 29,0 998,5 95 - -
    02:25 5,1 4,4 27,4 ssø 53,1 998,4 96 - -
    02:30 5,1 4,5 22,5 syd 46,7 998,3 96 - -
    02:35 5,1 4,5 20,9 ssø 41,8 998,2 96 - -
    02:40 5,1 4,5 27,4 ssø 41,8 998,1 96 0,30 -
    02:45 5,1 4,5 24,1 syd 51,5 998,1 96 0,30 -
    02:50 5,1 4,6 33,8 syd 49,9 997,9 96 - -
    02:55 5,2 4,6 25,7 ssø 38,6 997,8 96 - -
    03:00 5,2 4,6 22,5 syd 38,6 997,7 96 - -
    03:05 5,2 4,6 22,5 ssø 45,1 997,7 96 - -
    03:10 5,3 4,7 22,5 ssø 48,3 997,6 96 0,30 -
    03:15 5,3 4,7 20,9 ssø 29,0 997,7 96 - -
    03:20 5,4 4,8 24,1 ssø 40,2 997,5 96 - -
    03:25 5,4 4,8 25,7 ssø 41,8 997,4 96 - -
    03:30 5,4 4,8 29,0 syd 41,8 997,3 96 - -
    03:35 5,5 4,9 24,1 syd 46,7 997,2 96 - -
    03:40 5,6 4,9 27,4 ssø 48,3 997,1 96 - -
    03:45 5,7 5,1 22,5 ssø 43,4 997,2 96 - -
    03:50 5,7 5,1 25,7 syd 40,2 997,1 96 - -
    03:55 5,8 5,2 20,9 syd 37,0 996,8 96 - -
    04:00 5,8 5,3 24,1 syd 40,2 996,8 96 - -
    04:05 5,9 5,3 24,1 ssø 37,0 996,8 96 - -
    04:10 6,0 5,4 27,4 ssø 35,4 996,7 96 - -
    04:15 6,1 5,4 22,5 ssø 33,8 996,6 96 - -
    04:20 6,1 5,5 25,7 ssø 41,8 996,7 96 - -
    04:25 6,2 5,6 33,3 ssø 23,3 996,6 96 - -
    04:30 6,2 5,6 27,8 ssø 20,4 996,5 96 - -
    04:35 6,3 5,7 24,1 ssø 38,6 996,5 96 - -
    04:40 6,3 5,7 27,4 ssø 45,1 996,5 96 - -
    04:45 6,4 5,8 22,5 ssø 45,1 996,4 96 - -
    04:50 6,4 5,8 25,7 ssø 32,2 996,5 96 - -
    04:55 6,4 5,8 19,3 ssø 40,2 996,5 96 - -
    05:00 6,5 5,9 20,9 ssø 32,2 996,4 96 - -
    05:05 6,6 5,9 35,2 ssø 19,5 996,4 96 - -
    05:10 6,6 5,9 38,9 ssø 22,5 996,3 96 - -
    05:15 6,6 6,1 19,3 ssø 37,0 996,4 96 - -
    05:20 6,7 6,1 24,1 ssø 38,6 996,3 96 - -
    05:25 6,7 6,1 24,1 sv 41,8 996,2 96 - -
    05:30 6,8 6,2 25,7 ssø 40,2 996,2 96 - -
    05:35 6,8 6,2 19,3 syd 35,4 996,3 96 - -
    05:40 6,8 6,2 22,5 syd 38,6 996,1 96 - -
    05:45 6,8 6,2 20,9 ssø 29,0 996,1 96 - -
    05:50 6,9 6,3 27,4 ssø 43,4 996,0 96 - -
    05:55 6,9 6,3 20,9 syd 40,2 996,0 96 - -
    06:00 7,0 6,4 24,1 ssø 35,4 995,9 96 - -
    06:05 7,0 6,4 24,1 ssø 32,2 995,9 96 - -
    06:10 7,1 6,4 24,1 ssø 38,6 995,9 96 - -
    06:15 7,1 6,7 38,9 sv 21,1 995,8 97 - -
    06:20 7,2 6,7 20,9 syd 40,2 995,9 97 - -
    06:25 7,2 6,8 22,5 syd 38,6 995,8 97 - -
    06:30 7,3 6,8 20,9 syd 35,4 995,9 97 - -
    06:35 7,3 6,9 33,8 vsv 19,0 995,8 97 - -
    06:40 7,3 6,9 31,5 sv 23,0 995,8 97 - -
    06:45 7,4 6,9 24,1 ssø 41,8 995,8 97 - -
    06:50 7,4 6,9 19,3 ssø 25,7 995,9 97 - -
    06:55 7,4 7,0 19,3 ssø 25,7 996,0 97 - -
    07:00 7,4 7,0 20,9 ssø 33,8 996,1 97 - -
    07:05 7,4 7,0 19,3 ssø 29,0 996,1 97 - -
    07:10 7,4 7,0 19,3 ssø 33,8 996,1 97 - -
    07:15 7,5 7,1 19,3 ssø 27,4 996,1 97 - -
    07:20 7,5 7,1 14,5 ssø 32,2 996,2 97 - -
    07:25 7,5 7,1 19,3 ssø 33,8 996,2 97 - -
    07:30 7,5 7,1 14,5 ssø 27,4 996,2 97 - -
    07:35 7,5 7,1 19,3 ssø 29,0 996,4 97 - -
    07:40 7,5 7,1 20,9 ssø 32,2 996,3 97 - -
    07:45 7,5 7,1 25,9 syd 13,5 996,4 97 - -
    07:50 7,6 7,1 20,9 syd 29,0 996,3 97 - -
    07:55 7,6 7,1 20,9 ssø 22,5 996,4 97 - -
    08:00 7,6 7,1 11,3 ssø 27,4 996,5 97 - -
    08:05 7,6 7,1 16,1 ssø 24,1 996,6 97 - -
    08:10 7,6 7,1 14,5 ssø 35,4 996,6 97 - -
    08:15 7,6 7,6 19,3 ssø 32,2 996,6 100 - -
    08:20 7,6 7,2 12,9 ssø 27,4 996,8 97 0,30 -
    08:25 7,7 7,2 12,9 ssø 20,9 997,0 97 - -
    08:30 7,7 7,7 12,9 ssø 22,5 997,0 100 - -
    08:35 7,7 7,7 11,3 syd 33,8 997,1 100 - -
    08:40 7,7 7,7 19,3 syd 25,7 997,2 100 - -
    08:45 7,8 7,8 16,1 ssø 27,4 997,3 100 - -
    08:50 7,8 7,8 14,5 ssø 22,5 997,3 100 - -
    08:55 7,8 7,8 19,3 syd 25,7 997,3 100 - -
    09:00 7,9 7,9 16,1 syd 27,4 997,3 100 - -
    09:05 8,0 8,0 18,5 sv 11,9 997,4 100 0,30 -
    09:10 8,0 8,0 19,3 syd 22,5 997,3 100 - -
    09:15 8,1 8,1 20,9 ssø 25,7 997,3 100 - -
    09:20 8,1 8,1 19,3 sv 32,2 997,3 100 - -
    09:25 8,1 8,1 16,1 sv 19,3 997,4 100 - -
    09:30 8,1 8,1 16,1 sv 24,1 997,4 100 - 0.5
    09:35 8,1 8,1 8,0 syd 22,5 997,4 100 - 1.3
    09:40 8,1 8,1 12,9 ssø 25,7 997,5 100 - 2.3
    09:45 8,1 8,1 12,9 sv 25,7 997,6 100 - 3.2
    09:50 8,2 8,2 11,3 sv 19,3 997,5 100 - 4.2
    09:55 8,2 8,2 12,9 sv 16,1 997,6 100 - 5.2
    10:00 8,2 8,2 11,3 sv 24,1 997,7 100 - 6.2
    10:05 8,2 8,2 14,5 ssø 29,0 997,7 100 - 7
    10:10 8,2 8,2 9,7 ssø 20,9 997,8 100 - 8
    10:15 8,2 8,2 29,6 sv 15,9 997,9 100 - 9
    10:20 8,1 8,1 9,7 ssø 25,7 997,8 100 - 9.7
    10:25 8,1 8,1 16,1 ssø 32,2 997,9 100 - 10.6
    10:30 8,1 8,1 16,1 ssø 22,5 997,9 100 - 11.6
    10:35 8,1 8,1 14,5 ssø 27,4 997,9 100 - 12.4
    10:40 8,1 8,1 14,5 ssø 25,7 998,0 100 - 13.2
    10:45 8,1 8,1 14,5 ssø 22,5 997,8 100 - 14
    10:50 8,1 8,1 19,3 ssø 25,7 997,8 100 - 14.8
    10:55 8,1 8,1 14,5 ssø 25,7 997,8 100 - 15.7
    11:00 8,1 8,1 14,5 ssø 19,3 997,8 100 - 16.3
    11:05 8,1 8,1 12,9 ssø 19,3 997,9 100 - 17
    11:10 8,2 8,2 14,5 ssø 22,5 997,8 100 - 17.7
    11:15 8,2 8,2 18,5 ssø 11,6 997,8 100 0,30 40
    11:20 8,2 8,2 14,5 ssø 27,4 997,8 100 - 19.1
    11:25 8,2 8,2 19,3 ssø 22,5 997,8 100 - 19.6
    11:30 8,2 8,2 12,9 syd 22,5 997,7 100 0,30 20.2
    11:35 8,2 8,2 11,3 syd 24,1 997,7 100 - 20.9

    Download your copy of this data-set  here

    Our weather-data as stored at Weather Underground. script udviklet af Jim McMurry. tilpasset til dette template Leuven-Template.eu

    du finder også vores vejrinformationer på:

    European Weather Network

    Weather Underground

    AWEKAS

    WeatherlinkIP

    Citizen Weather Observer Program (CWOP)

    udstyr som vi anvender:

    vejrstation
    Davis VP2+

    vejrprogram
    Weather Display

    vejrserver
    Dell E6400

    hjemmeside host
    Webhosting.dk

    Davis VP2+

    Weather Display

    Dell E6400

    Webhosting.dk